Location: OLV Amersfoort
(52.1552°N, 5.3872°E)
Time: 09:12:49
(UTC+01:00)

ISS - Visible Passes

Search period start: 27 March 2015 00:00
Search period end: 06 April 2015 01:00
Orbit: 396 x 406 km, 51.6° (Epoch: 26 March)

Date Brightness Start Highest point End Pass type
(mag) Time Alt. Az. Time Alt. Az. Time Alt. Az.
27 Mar -1.9 03:52:38 33° ESE 03:52:38 33° ESE 03:54:34 10° E visible
27 Mar -2.5 05:25:13 15° W 05:27:32 34° SSW 05:30:30 10° SE visible
28 Mar -3.1 04:34:07 47° SSW 04:34:17 48° SSW 04:37:25 10° SE visible
29 Mar -1.1 04:43:07 19° ESE 04:43:07 19° ESE 04:44:12 10° ESE visible
29 Mar -1.9 06:15:43 17° WSW 06:17:01 21° SSW 06:19:31 10° SSE visible
30 Mar -1.9 05:24:53 24° S 05:24:53 24° S 05:26:41 10° SE visible
31 Mar -1.2 06:06:52 12° SSW 06:06:52 12° SSW 06:07:43 10° SSW visible
04 Apr -0.9 22:23:57 10° SW 22:24:30 14° SSW 22:24:30 14° SSW visible
05 Apr -1.9 21:30:56 10° SSW 21:33:25 20° SSE 21:34:01 20° SE visible
05 Apr -0.6 23:06:12 10° WSW 23:06:38 13° WSW 23:06:38 13° WSW visible
